DateTimeUTC,F1_A11,F1_S11,BsB_S11,BsG_S11,BsR_S11,BbsB_S11,BbsG_S11,BbsR_S11,BaB_A11,BaG_A11,BaR_A11,Tu_S11,T_S11,Uu_S11,U_S11,P_S11,T1_A11
2021-05-25T17:00:00Z,00000200,20000000,,,,,,,0000.15,0000.02,0000.34,16.6,23.4,03.5,02.3,0669.7,30.8
2021-05-25T17:01:00Z,00000200,20000000,,,,,,,-000.08,0000.25,0000.10,16.6,23.4,03.4,02.2,0669.7,30.8
2021-05-25T17:02:00Z,00000200,20000000,,,,,,,0000.19,0000.09,-000.11,16.6,23.4,03.4,02.2,0669.7,30.8
2021-05-25T17:03:00Z,00000200,60000000,,,,,,,0000.51,0000.10,0000.60,16.6,23.4,03.4,02.2,0669.7,30.8
2021-05-25T17:04:00Z,00000200,40000000,0002.08,0001.87,0000.92,0000.50,0000.40,-000.26,0000.55,0000.74,0000.51,16.9,23.4,03.6,02.4,0670.6,30.9
2021-05-25T17:05:00Z,00000200,00000000,0003.23,0001.87,0001.04,0000.24,0000.50,-000.01,0000.47,0000.97,0000.78,17.0,23.4,03.7,02.5,0670.7,30.9
2021-05-25T17:06:00Z,00000200,00000000,0003.35,0001.82,0000.95,0000.46,0000.42,0000.15,0000.76,0000.20,0000.35,17.1,23.4,03.6,02.4,0670.7,30.9
2021-05-25T17:07:00Z,00000200,00000000,0002.54,0001.74,0001.14,0000.18,0000.52,0000.12,0000.32,0000.43,0000.37,17.1,23.4,03.7,02.5,0670.8,30.9
2021-05-25T17:08:00Z,00000200,00000000,0002.21,0001.76,0000.97,0000.17,0000.34,-000.03,0000.46,0000.64,0000.61,17.1,23.5,03.7,02.5,0670.7,30.9
2021-05-25T17:09:00Z,00000200,00000000,0002.18,0001.73,0001.13,0000.45,0000.42,0000.20,0000.42,0000.31,0000.31,17.1,23.5,03.6,02.4,0670.7,30.9
2021-05-25T17:10:00Z,00000200,00000000,0003.57,0002.06,0000.58,-000.13,0000.48,-000.06,0000.59,0000.39,0000.46,17.1,23.5,03.6,02.5,0670.8,30.9
2021-05-25T17:11:00Z,00000200,00000000,0003.37,0002.36,0000.98,0000.54,0000.22,0000.15,0000.67,0000.66,0000.34,17.1,23.5,03.6,02.5,0670.8,30.9
2021-05-25T17:12:00Z,00000200,00000000,0003.06,0002.36,0001.24,0000.47,0000.56,0000.14,0000.57,0000.64,0000.76,17.1,23.5,03.7,02.5,0670.8,30.9
2021-05-25T17:13:00Z,00000200,00000000,0003.34,0002.07,0001.44,0000.37,0000.51,0000.03,0000.85,0000.79,0000.92,17.1,23.5,03.8,02.5,0670.8,30.9
2021-05-25T17:14:00Z,00000200,00000000,0003.10,0002.21,0001.23,0000.41,0000.80,0000.37,0000.36,0000.56,0000.32,17.1,23.4,03.7,02.5,0670.7,30.8
2021-05-25T17:15:00Z,00000200,00000000,0004.51,0002.27,0001.21,0000.17,0000.61,0000.12,0000.93,0000.74,0000.76,17.1,23.4,03.7,02.5,0670.7,30.9
2021-05-25T17:16:00Z,00000200,00000000,0004.19,0002.41,0001.56,0000.00,0000.46,0000.35,0000.26,0000.56,0000.63,17.1,23.5,03.6,02.5,0670.7,30.9
2021-05-25T17:17:00Z,00000200,00000000,0002.98,0002.39,0001.51,0000.25,0000.32,0000.34,0000.39,0000.24,0000.63,17.2,23.5,03.7,02.5,0670.7,30.9
2021-05-25T17:18:00Z,00000200,00000000,0004.16,0002.45,0001.24,0000.56,0000.70,0000.23,0000.81,0000.94,0000.90,17.3,23.5,03.8,02.6,0670.7,30.9
2021-05-25T17:19:00Z,00000200,00000000,0003.98,0002.49,0001.82,0000.20,0000.36,0000.37,0000.72,0000.86,0000.25,17.3,23.6,03.8,02.5,0670.7,30.9
2021-05-25T17:20:00Z,00000200,00000000,0004.35,0002.79,0001.60,0000.54,0000.47,0000.38,0000.69,0000.82,0001.25,17.3,23.6,03.7,02.5,0670.7,30.9
2021-05-25T17:21:00Z,00000200,00000000,0004.62,0002.67,0001.68,0000.56,0000.83,0000.47,0000.28,0000.10,0000.16,17.3,23.6,03.7,02.5,0670.8,30.9
2021-05-25T17:22:00Z,00000200,00000000,0004.45,0002.61,0001.58,0000.22,0000.47,0000.34,0000.60,0000.67,0000.44,17.3,23.6,03.8,02.6,0670.8,30.9
2021-05-25T17:23:00Z,00000200,00000000,0003.98,0002.48,0001.75,0000.37,0000.19,0000.33,0000.72,0000.73,0000.64,17.3,23.6,03.8,02.6,0670.8,30.9
2021-05-25T17:24:00Z,00000200,00000000,0004.05,0002.54,0001.43,0000.39,0000.63,0000.32,0000.65,0000.67,0001.08,17.3,23.6,03.7,02.5,0670.8,30.9
2021-05-25T17:25:00Z,00000200,00000000,0003.54,0002.29,0001.50,0000.28,0000.27,0000.45,0000.59,0000.48,0000.40,17.3,23.6,03.7,02.5,0670.7,30.9
2021-05-25T17:26:00Z,00000200,00000000,0003.24,0002.07,0001.39,0000.07,0000.26,0000.28,0001.06,0001.00,0000.74,17.3,23.6,03.8,02.6,0670.9,30.8
2021-05-25T17:27:00Z,00000200,00000000,0003.64,0002.41,0001.17,0000.79,0000.11,0000.05,0000.22,0000.56,0000.77,17.2,23.6,03.8,02.6,0670.9,30.8
2021-05-25T17:28:00Z,00000200,00000000,0003.30,0002.11,0000.96,0000.08,0000.53,0000.15,0000.60,0000.52,0000.48,17.2,23.6,03.7,02.5,0670.9,30.8
2021-05-25T17:29:00Z,00000200,00000000,0003.13,0002.11,0001.48,0001.00,0000.39,0000.43,0000.93,0000.67,0000.45,17.2,23.6,03.9,02.6,0670.9,30.8
2021-05-25T17:30:00Z,00000200,00000000,0003.68,0002.56,0001.50,0000.22,0000.32,0000.46,0000.61,0000.86,0000.75,17.2,23.6,03.8,02.6,0670.9,30.8
2021-05-25T17:31:00Z,00000200,00000000,0003.78,0002.60,0001.54,0000.66,0000.49,0000.11,0000.35,0000.07,0000.71,17.2,23.6,03.8,02.5,0670.9,30.9
2021-05-25T17:32:00Z,00000200,00000000,0004.60,0002.72,0001.47,0000.32,0000.54,0000.27,0001.00,0000.92,0000.89,17.2,23.6,03.8,02.6,0670.8,30.9
2021-05-25T17:33:00Z,00000200,00000000,0003.41,0002.44,0001.71,0000.44,0000.40,0000.47,0000.33,0000.56,0000.43,17.2,23.6,03.8,02.6,0670.9,30.8
2021-05-25T17:34:00Z,00000200,00000000,0003.93,0002.52,0001.30,0000.78,0000.47,0000.39,0000.82,0000.94,0000.78,17.2,23.6,03.8,02.6,0670.8,30.8
2021-05-25T17:35:00Z,00000200,00000000,0004.26,0002.40,0001.56,0000.75,0000.31,0000.12,0000.58,0000.96,0000.61,17.2,23.6,03.8,02.6,0670.8,30.8
2021-05-25T17:36:00Z,00000200,00000000,0003.95,0002.33,0001.41,0001.03,0000.27,0000.13,0000.35,0000.06,0000.62,17.2,23.6,03.9,02.6,0670.8,30.8
2021-05-25T17:37:00Z,00000200,00000000,0003.02,0002.08,0001.27,0000.56,0000.30,0000.24,0000.97,0000.60,0000.45,17.2,23.6,03.9,02.7,0670.8,30.8
2021-05-25T17:38:00Z,00000200,00000000,0003.31,0002.42,0001.35,0000.55,0000.43,0000.33,0000.46,0000.66,0000.77,17.2,23.5,03.9,02.6,0670.9,30.8
2021-05-25T17:39:00Z,00000200,00000000,0003.32,0002.20,0001.19,0000.23,0000.49,0000.27,0000.35,0000.73,0000.70,17.2,23.5,03.9,02.7,0670.9,30.8
2021-05-25T17:40:00Z,00000200,00000000,0003.70,0002.08,0001.29,0000.76,0000.39,0000.00,0000.65,0000.75,0000.40,17.2,23.5,03.9,02.6,0670.9,30.8
2021-05-25T17:41:00Z,00000200,00000000,0003.50,0002.23,0001.27,0000.33,0000.39,0000.26,0000.60,0000.35,0000.71,17.1,23.5,04.0,02.7,0671.0,30.8
2021-05-25T17:42:00Z,00000200,00000000,0003.02,0002.23,0001.13,0000.72,0000.47,0000.36,0000.45,0000.50,0000.22,17.1,23.5,03.9,02.7,0670.8,30.8
2021-05-25T17:43:00Z,00000200,00000000,0002.89,0002.05,0001.04,0000.03,0000.81,0000.16,0000.57,0000.67,0000.60,17.1,23.5,03.9,02.6,0670.7,30.8
2021-05-25T17:44:00Z,00000200,00000000,0003.53,0001.66,0001.03,0000.59,0000.20,0000.38,0000.33,0000.62,0000.72,17.1,23.5,03.9,02.6,0670.8,30.8
2021-05-25T17:45:00Z,00000200,00000000,0002.43,0001.66,0001.13,0000.34,0000.29,-000.04,0000.92,0000.61,0000.57,17.1,23.5,03.9,02.6,0670.9,30.8
2021-05-25T17:46:00Z,00000200,00000000,0003.95,0001.98,0001.12,0000.75,0000.53,0000.27,0000.26,0000.36,0000.67,17.2,23.5,03.9,02.7,0670.9,30.8
2021-05-25T17:47:00Z,00000200,00000000,0003.11,0002.00,0000.71,0000.29,0000.47,0000.21,0000.89,0000.68,0000.07,17.2,23.5,04.0,02.7,0671.0,30.9
2021-05-25T17:48:00Z,00000200,00000000,0003.51,0002.07,0001.24,0000.88,0000.19,0000.38,0000.39,0000.52,0000.88,17.2,23.6,04.0,02.7,0671.0,30.9
2021-05-25T17:49:00Z,00000200,00000000,0002.84,0001.51,0001.24,0000.65,0000.38,-000.02,0000.56,0000.24,0000.31,17.2,23.6,04.0,02.7,0670.9,30.9
2021-05-25T17:50:00Z,00000200,00000000,0002.33,0001.75,0001.04,0000.58,0000.49,0000.08,-000.11,0000.41,0000.42,17.2,23.5,04.0,02.7,0670.9,30.9
2021-05-25T17:51:00Z,00000200,00000000,0003.23,0001.31,0000.92,0000.56,0000.26,-000.14,0001.16,0000.90,0000.54,17.2,23.5,04.0,02.7,0670.9,30.9
2021-05-25T17:52:00Z,00000200,00000000,0002.58,0001.67,0001.33,0000.19,0000.19,0000.42,0000.39,0000.40,0000.86,17.2,23.5,04.0,02.7,0671.0,30.8
2021-05-25T17:53:00Z,00000200,00000000,0002.33,0001.66,0000.98,0000.60,0000.63,0000.30,0000.12,0000.20,0000.32,17.2,23.5,03.9,02.6,0670.9,30.8
2021-05-25T17:54:00Z,00000200,00000000,0002.97,0001.52,0000.69,0000.13,0000.53,-000.12,0000.77,0000.65,0000.06,17.1,23.5,04.0,02.7,0671.0,30.8
2021-05-25T17:55:00Z,00000200,00000000,0002.14,0001.51,0001.17,0000.37,0000.27,0000.03,0000.47,0000.59,0000.66,17.1,23.5,04.1,02.8,0670.9,30.8
2021-05-25T17:56:00Z,00000200,00000000,0002.95,0001.81,0001.00,0000.12,0000.05,0000.05,0000.49,0000.41,0000.18,17.1,23.5,03.9,02.6,0670.8,30.8
2021-05-25T17:57:00Z,00000200,40000000,,,,,,,-000.04,-000.20,-000.04,17.2,23.6,03.9,02.6,0670.8,30.8
2021-05-25T17:58:00Z,00000200,60000000,,,,,,,-000.07,-000.10,0000.26,16.9,23.6,03.9,02.5,0670.0,30.8
2021-05-25T17:59:00Z,00000200,20000000,,,,,,,0000.00,0000.03,-000.30,16.9,23.7,03.9,02.5,0669.9,30.8
